Torna al catalogo

SL-3 R/B

AttivoPO
NORAD 13771·ROCKET BODY·🇷🇺 Russia

Lanciato Jan 20, 1983 da Plesetsk Cosmodrome

Loading…

Prossimi Passaggi (prossime 24 ore)

TLE

AggiornatoSource: Space-Track

Epoca: Sep 14, 2026, 15:44 UTC

1 13771U 83003B   26257.65623342  .00008440  00000-0  22551-3 0  9990
2 13771  81.1581  35.3505 0026095 224.5080 135.4065 15.37579977385403

Traccia SL-3 R/B in tempo reale con AllMySat

Download on the App Store